Location: Biltmore Gardens
(41.6070°N, 83.4666°W)
Time: 15:07:18
(UTC+00:00)

Meteor 1-4 Rocket - Pass Details

Date: 14 July 2020
Orbit: 449 x 503 km, 81.2° (Epoch: 12 August)

Event Time Altitude Azimuth Distance (km) Brightness Sun altitude
Rises 06:33:37 0° 347° (NNW) 2,580 7.2 -25.6°
Reaches altitude 10° 06:35:46 10° 344° (NNW) 1,685 6.1 -25.5°
Enters shadow 06:38:05 35° 331° (NNW) 798 3.9 -25.4°
